BAW82P EGLL-KSAN

Flight info

Callsign BAW82P
Flight time N/A
Altitude 32000
Route UMLAT T418 WELIN T420 TNT UL28 RODOL UM65 TENSO L603 BELOX DCT REMSI DCT GOMUP/M086F320 DCT 5830N02000W 5930N03000W 60N040W 59N050W DCT TOXIT DCT SINGA/N0501F320 DCT LOPVI/N0497F340 DCT 59N070W 5730N08000W 54N090W DCT OTLUR DCT KP21A DCT KP06Y/N0490F360 DCT KD84W DCT KD75U DCT KD63S DCT KD48Q DCT PGS DCT PKE LUCKI1
Aircraft B77W/H-SDE1E2E3FGHIJ2J3J4J5M1RWXY/LB1D1

Departure

Time N/A
Airport London Heathrow Airport (EGLL)

Arrival

Time 2026-05-04 15:32
Airport San Diego International Airport (KSAN)
Time Latitude Longitude Altitude Speed Heading
2026-05-04 15:20 32.97745 -116.47246 11439 ft 279 kts 223°
2026-05-04 15:20 32.96299 -116.48712 11201 ft 271 kts 223°
2026-05-04 15:21 32.94876 -116.50150 10973 ft 264 kts 224°
2026-05-04 15:21 32.93473 -116.51569 10753 ft 257 kts 223°
2026-05-04 15:21 32.90843 -116.54221 10328 ft 250 kts 224°
2026-05-04 15:22 32.89513 -116.55563 10104 ft 250 kts 223°
2026-05-04 15:22 32.88181 -116.56905 9885 ft 250 kts 224°
2026-05-04 15:22 32.85551 -116.59553 9356 ft 247 kts 224°
2026-05-04 15:23 32.84247 -116.60866 9094 ft 250 kts 223°
2026-05-04 15:23 32.82905 -116.62217 8862 ft 248 kts 223°
2026-05-04 15:23 32.81589 -116.63542 8646 ft 250 kts 223°
2026-05-04 15:23 32.80253 -116.64887 8421 ft 250 kts 223°
2026-05-04 15:24 32.77616 -116.67629 7964 ft 249 kts 232°
2026-05-04 15:24 32.75831 -116.71077 7452 ft 251 kts 242°
2026-05-04 15:25 32.74974 -116.72891 7174 ft 249 kts 242°
2026-05-04 15:25 32.74130 -116.74676 6912 ft 250 kts 242°
2026-05-04 15:25 32.73268 -116.76493 6657 ft 257 kts 243°
2026-05-04 15:26 32.71537 -116.80157 6178 ft 249 kts 243°
2026-05-04 15:26 32.70742 -116.81928 5953 ft 247 kts 249°
2026-05-04 15:26 32.69543 -116.85680 5394 ft 244 kts 252°
2026-05-04 15:27 32.68958 -116.87565 5113 ft 242 kts 252°
2026-05-04 15:27 32.67842 -116.91308 4553 ft 239 kts 253°
2026-05-04 15:28 32.67589 -116.95097 4020 ft 232 kts 284°
2026-05-04 15:28 32.67992 -116.96923 3766 ft 230 kts 287°
2026-05-04 15:28 32.68866 -117.00494 3222 ft 217 kts 288°
2026-05-04 15:29 32.69268 -117.02144 2970 ft 205 kts 288°
2026-05-04 15:30 32.70773 -117.08318 2010 ft 182 kts 288°
2026-05-04 15:30 32.71775 -117.12425 1185 ft 166 kts 286°
2026-05-04 15:31 32.72310 -117.14834 568 ft 135 kts 290°
2026-05-04 15:31 32.72622 -117.15934 421 ft 139 kts 287°
2026-05-04 15:32 32.73387 -117.19070 33 ft 113 kts 287°
2026-05-04 15:32 32.73593 -117.19933 33 ft 21 kts 285°
2026-05-04 15:33 32.73617 -117.20180 33 ft 10 kts 227°
2026-05-04 15:34 32.73529 -117.20486 33 ft 16 kts 233°
2026-05-04 15:34 32.73434 -117.20552 33 ft 12 kts 186°
2026-05-04 15:34 32.73326 -117.20655 33 ft 10 kts 252°
2026-05-04 15:35 32.73282 -117.20702 33 ft 1 kts 197°
2026-05-04 15:35 32.73269 -117.20706 33 ft 2 kts 193°
2026-05-04 15:35 32.73263 -117.20708 33 ft 0 kts 193°